Weather History for KHLC - January, 2015

Change the Weather History Date:

Wednesday, January 14, 2015

  Actual Average Record
Temperature  
Mean Temperature 31 °F 29 °F  
Max Temperature 43 °F 42 °F 74 °F (1996)
Min Temperature 18 °F 17 °F -10 °F (1972)
Degree Days  
Heating Degree Days 34    
Moisture  
Dew Point 16 °F    
Average Humidity 64    
Maximum Humidity 85    
Minimum Humidity 41    
Precipitation  
Precipitation 0.00 in 0.01 in 0.01 in (2007)
Month to date precipitation 0.01 0.12  
Year to date precipitation 0.01 0.12  
Sea Level Pressure  
Sea Level Pressure 30.33 in    
Wind  
Wind Speed 4 mph (WNW)    
Max Wind Speed 9 mph    
Max Gust Speed -    
Visibility 10 miles    
Events      
T = Trace of Precipitation, MM = Missing Value Source: NWS Daily Summary

Daily Weather History Graph

Daily Weather History Graph

Search for Another Location

Airport or City:

Trip Planner

Search our weather history database for the weather conditions in past years. The results will help you decide how hot, cold, wet, or windy it might be!

Date:

Astronomy

Jan. 14, 2015 Rise Set
Actual Time 7:58 AM CST 5:38 PM CST
Civil Twilight 7:28 AM CST 6:08 PM CST
Nautical Twilight 6:55 AM CST 6:41 PM CST
Astronomical Twilight 6:23 AM CST 7:13 PM CST
Moon 1:53 AM CST (1/14) 12:53 PM CST (1/14)
Length of Visible Light 10h 39m
Length of Day
9h 40m
Last Quarter, 37% of the Moon is Illuminated
Jan 14
Last Quarter
Jan 20
New
Jan 26
First Quarter
Feb 3
Full
Feb 11
Last Quarter

Hourly Weather History & Observations

Time (CST) Temp. Windchill Dew Point Humidity Pressure Visibility Wind Dir Wind Speed Gust Speed Precip Events Conditions
12:53 AM 25.0 °F - 10.0 °F 53% 30.43 in 10.0 mi Calm Calm - N/A   Overcast
1:53 AM 26.1 °F - 10.9 °F 53% 30.43 in 10.0 mi Calm Calm - N/A   Overcast
2:29 AM 26.1 °F - 12.0 °F 55% 30.34 in 10.0 mi Calm Calm - N/A   Overcast
2:53 AM 26.1 °F 21.9 °F 10.9 °F 53% 30.42 in 10.0 mi WSW 3.5 mph - N/A   Overcast
3:39 AM 26.1 °F 21.9 °F 12.9 °F 58% 30.33 in 10.0 mi West 3.5 mph - N/A   Overcast
3:53 AM 26.1 °F 20.5 °F 12.9 °F 58% 30.39 in 10.0 mi WSW 4.6 mph - N/A   Overcast
4:53 AM 23.0 °F 17.0 °F 12.9 °F 65% 30.39 in 10.0 mi West 4.6 mph - N/A   Partly Cloudy
5:53 AM 19.9 °F 11.1 °F 15.1 °F 81% 30.40 in 10.0 mi WNW 6.9 mph - N/A   Clear
6:53 AM 19.9 °F 9.3 °F 16.0 °F 85% 30.42 in 10.0 mi NNW 9.2 mph - N/A   Clear
7:53 AM 19.0 °F 9.0 °F 14.0 °F 81% 30.43 in 9.0 mi NNW 8.1 mph - N/A   Clear
8:53 AM 21.9 °F 11.7 °F 17.1 °F 82% 30.40 in 10.0 mi NNW 9.2 mph - N/A   Clear
9:53 AM 30.0 °F 24.1 °F 19.9 °F 66% 30.40 in 10.0 mi NW 5.8 mph - N/A   Clear
11:53 AM 37.0 °F 32.4 °F 19.0 °F 48% 30.36 in - NNW 5.8 mph - N/A   Clear
12:53 PM 39.0 °F 33.4 °F 19.9 °F 46% 30.31 in 10.0 mi NNW 8.1 mph - N/A   Unknown
1:53 PM 39.9 °F 33.9 °F 19.9 °F 45% 30.28 in 10.0 mi NW 9.2 mph - N/A   Clear
2:53 PM 42.1 °F 38.4 °F 19.9 °F 41% 30.25 in 10.0 mi NNW 5.8 mph - N/A   Clear
3:53 PM 42.1 °F 37.7 °F 19.9 °F 41% 30.25 in 10.0 mi West 6.9 mph - N/A   Clear
4:53 PM 41.0 °F 37.1 °F 19.9 °F 43% 30.25 in 10.0 mi West 5.8 mph - N/A   Clear
5:53 PM 32.0 °F 27.5 °F 19.0 °F 59% 30.27 in 10.0 mi NW 4.6 mph - N/A   Clear
6:53 PM 24.1 °F 18.2 °F 17.1 °F 75% 30.28 in 10.0 mi NNW 4.6 mph - N/A   Clear
7:53 PM 23.0 °F 18.4 °F 17.1 °F 78% 30.29 in 10.0 mi WNW 3.5 mph - N/A   Clear
8:53 PM 21.9 °F 17.2 °F 16.0 °F 78% 30.27 in 10.0 mi West 3.5 mph - N/A   Clear
9:53 PM 19.9 °F 13.4 °F 15.1 °F 81% 30.27 in 10.0 mi West 4.6 mph - N/A   Clear
10:53 PM 21.0 °F 13.4 °F 16.0 °F 81% 30.25 in 10.0 mi SW 5.8 mph - N/A   Clear
11:53 PM 21.9 °F 14.5 °F 17.1 °F 82% 30.25 in 10.0 mi West 5.8 mph - N/A   Clear